Weather History for PAZK - July, 2013

Change the Weather History Date:

Tuesday, July 2, 2013

  Actual Average Record
Temperature  
Mean Temperature 47 °F -  
Max Temperature 55 °F 58 °F 71 °F (1999)
Min Temperature 39 °F 42 °F 39 °F (2010)
Degree Days  
Heating Degree Days 18    
Moisture  
Dew Point 35 °F    
Average Humidity 65    
Maximum Humidity 87    
Minimum Humidity 38    
Precipitation  
Precipitation 0.00 in - - ()
Sea Level Pressure  
Sea Level Pressure 29.69 in    
Wind  
Wind Speed 5 mph (SW)    
Max Wind Speed 13 mph    
Max Gust Speed 20 mph    
Visibility 10 miles    
Events      
Averages and records for this station are not official NWS values.
T = Trace of Precipitation, MM = Missing Value Source: NWS Daily Summary

Daily Weather History Graph

Daily Weather History Graph

Search for Another Location

Airport or City:

Trip Planner

Search our weather history database for the weather conditions in past years. The results will help you decide how hot, cold, wet, or windy it might be!

Date:

Astronomy

Jul. 02, 2013 Rise Set
Actual Time 4:08 AM AKDT 11:36 PM AKDT
Civil Twilight 2:25 AM AKDT 1:20 AM AKDT
Nautical Twilight Sun does not rise Sun does not rise
Astronomical Twilight Sun does not rise Sun does not rise
Moon 1:25 AM AKDT (7/2) 6:03 PM AKDT (7/2)
Length of Visible Light 22h 55m
Length of Day
19h 27m
Waning Crescent, 25% of the Moon is Illuminated
Jul 2
Waning Crescent
Jul 7
New
Jul 15
First Quarter
Jul 22
Full
Jul 29
Last Quarter

Hourly Weather History & Observations

Time (AKDT) Temp. Windchill Dew Point Humidity Pressure Visibility Wind Dir Wind Speed Gust Speed Precip Events Conditions
12:16 AM 42.8 °F 40.1 °F 39.2 °F 87% 29.60 in 10.0 mi North 4.6 mph - N/A   Partly Cloudy
12:36 AM 42.8 °F 41.1 °F 39.2 °F 87% 29.60 in 10.0 mi NNE 3.5 mph - N/A   Partly Cloudy
12:56 AM 42.8 °F 40.1 °F 37.4 °F 81% 29.60 in 10.0 mi NNE 4.6 mph - N/A   Partly Cloudy
1:16 AM 42.8 °F 40.1 °F 35.6 °F 76% 29.60 in 10.0 mi North 4.6 mph - N/A   Mostly Cloudy
1:36 AM 42.8 °F 39.3 °F 35.6 °F 76% 29.61 in 10.0 mi NNW 5.8 mph - N/A   Partly Cloudy
1:56 AM 42.8 °F 38.6 °F 37.4 °F 81% 29.61 in 10.0 mi North 6.9 mph - N/A   Clear
2:16 AM 42.8 °F 38.6 °F 35.6 °F 76% 29.61 in 10.0 mi North 6.9 mph - N/A   Partly Cloudy
2:36 AM 42.8 °F 40.1 °F 35.6 °F 76% 29.61 in 10.0 mi NNE 4.6 mph - N/A   Clear
2:56 AM 42.8 °F 41.1 °F 33.8 °F 70% 29.62 in 10.0 mi NNE 3.5 mph - N/A   Partly Cloudy
3:16 AM 41.0 °F 38.0 °F 33.8 °F 76% 29.61 in 10.0 mi NNE 4.6 mph - N/A   Partly Cloudy
3:36 AM 41.0 °F - 33.8 °F 76% 29.62 in 10.0 mi Calm Calm - N/A   Clear
3:56 AM 39.2 °F 34.2 °F 32.0 °F 75% 29.61 in 10.0 mi NE 6.9 mph - N/A   Clear
4:16 AM 39.2 °F 35.0 °F 33.8 °F 81% 29.61 in 10.0 mi NE 5.8 mph - N/A   Clear
4:36 AM 39.2 °F 35.9 °F 33.8 °F 81% 29.62 in 10.0 mi NNE 4.6 mph - N/A   Clear
4:56 AM 39.2 °F 35.9 °F 33.8 °F 81% 29.62 in 10.0 mi NNE 4.6 mph - N/A   Clear
5:16 AM 39.2 °F - 35.6 °F 87% 29.63 in 10.0 mi Calm Calm - N/A   Clear
5:36 AM 39.2 °F - 33.8 °F 81% 29.63 in 10.0 mi Calm Calm - N/A   Clear
5:56 AM 41.0 °F - 35.6 °F 81% 29.64 in 10.0 mi Calm Calm - N/A   Clear
6:16 AM 39.2 °F - 33.8 °F 81% 29.63 in 10.0 mi Calm Calm - N/A   Partly Cloudy
6:36 AM 41.0 °F - 35.6 °F 81% 29.64 in 10.0 mi Calm Calm - N/A   Partly Cloudy
6:56 AM 39.2 °F 35.9 °F 35.6 °F 87% 29.64 in 10.0 mi NNE 4.6 mph - N/A   Clear
7:16 AM 41.0 °F 39.0 °F 35.6 °F 81% 29.64 in 10.0 mi NNE 3.5 mph - N/A   Mostly Cloudy
7:36 AM 41.0 °F 37.1 °F 35.6 °F 81% 29.65 in 10.0 mi ENE 5.8 mph - N/A   Scattered Clouds
7:56 AM 42.8 °F 39.3 °F 35.6 °F 76% 29.65 in 10.0 mi ENE 5.8 mph - N/A   Clear
8:16 AM 44.6 °F 42.2 °F 35.6 °F 71% 29.65 in 10.0 mi East 4.6 mph - N/A   Clear
8:36 AM 44.6 °F 43.1 °F 35.6 °F 71% 29.65 in 10.0 mi South 3.5 mph - N/A   Clear
8:56 AM 46.4 °F - 35.6 °F 66% 29.66 in 10.0 mi Calm Calm - N/A   Clear
9:16 AM 46.4 °F 45.2 °F 37.4 °F 71% 29.66 in 10.0 mi South 3.5 mph - N/A   Clear
9:36 AM 46.4 °F - 35.6 °F 66% 29.66 in 10.0 mi Calm Calm - N/A   Clear
9:56 AM 48.2 °F - 35.6 °F 62% 29.66 in 10.0 mi Calm Calm - N/A   Clear
10:16 AM 48.2 °F - 35.6 °F 62% 29.66 in 10.0 mi South 4.6 mph - N/A   Clear
10:36 AM 46.4 °F - 35.6 °F 66% 29.67 in 10.0 mi Calm Calm - N/A   Scattered Clouds
10:56 AM 48.2 °F - 35.6 °F 62% 29.67 in 10.0 mi SW 5.8 mph - N/A   Mostly Cloudy
11:16 AM 48.2 °F - 35.6 °F 62% 29.68 in 10.0 mi WSW 3.5 mph - N/A   Mostly Cloudy
11:36 AM 48.2 °F - 35.6 °F 62% 29.68 in 10.0 mi SSW 4.6 mph - N/A   Mostly Cloudy
11:56 AM 48.2 °F - 35.6 °F 62% 29.68 in 10.0 mi SW 3.5 mph - N/A   Scattered Clouds
12:16 PM 48.2 °F - 35.6 °F 62% 29.69 in 10.0 mi West 3.5 mph - N/A   Clear
12:36 PM 48.2 °F - 35.6 °F 62% 29.69 in 10.0 mi Calm Calm - N/A   Partly Cloudy
12:56 PM 48.2 °F - 35.6 °F 62% 29.70 in 10.0 mi Calm Calm - N/A   Clear
1:16 PM 50.0 °F - 35.6 °F 58% 29.70 in 10.0 mi Calm Calm - N/A   Scattered Clouds
1:36 PM 50.0 °F - 35.6 °F 58% 29.70 in 10.0 mi SSE 3.5 mph - N/A   Partly Cloudy
1:56 PM 51.8 °F - 35.6 °F 54% 29.71 in 10.0 mi SSE 8.1 mph - N/A   Clear
2:16 PM 51.8 °F - 35.6 °F 54% 29.71 in 10.0 mi SSE 4.6 mph - N/A   Clear
2:36 PM 51.8 °F - 35.6 °F 54% 29.71 in 10.0 mi Calm Calm - N/A   Clear
2:56 PM 51.8 °F - 33.8 °F 50% 29.72 in 10.0 mi SSE 9.2 mph - N/A   Clear
3:16 PM 51.8 °F - 33.8 °F 50% 29.72 in 10.0 mi SE 5.8 mph - N/A   Clear
3:36 PM 53.6 °F - 33.8 °F 47% 29.72 in 10.0 mi SSE 11.5 mph - N/A   Clear
3:56 PM 53.6 °F - 32.0 °F 44% 29.72 in 10.0 mi South 11.5 mph 17.3 mph N/A   Partly Cloudy
4:16 PM 55.4 °F - 32.0 °F 41% 29.72 in 10.0 mi SE 11.5 mph 17.3 mph N/A   Scattered Clouds
4:36 PM 55.4 °F - 30.2 °F 38% 29.72 in 10.0 mi SE 12.7 mph 17.3 mph N/A   Clear
4:56 PM 55.4 °F - 30.2 °F 38% 29.72 in 10.0 mi SSE 9.2 mph - N/A   Partly Cloudy
5:16 PM 55.4 °F - 32.0 °F 41% 29.72 in 10.0 mi WSW 6.9 mph - N/A   Clear
5:36 PM 53.6 °F - 35.6 °F 51% 29.73 in 10.0 mi WSW 10.4 mph - N/A   Partly Cloudy
5:56 PM 51.8 °F - 33.8 °F 50% 29.73 in 10.0 mi SW 8.1 mph - N/A   Scattered Clouds
6:16 PM 51.8 °F - 33.8 °F 50% 29.73 in 10.0 mi WSW 6.9 mph - N/A   Overcast
6:36 PM 51.8 °F - 33.8 °F 50% 29.73 in 10.0 mi SW 9.2 mph - N/A   Overcast
6:56 PM 53.6 °F - 35.6 °F 51% 29.73 in 10.0 mi SSW 9.2 mph - N/A   Overcast
7:36 PM 53.6 °F - 35.6 °F 51% 29.74 in 10.0 mi SW 11.5 mph - N/A   Overcast
7:56 PM 53.6 °F - 35.6 °F 51% 29.75 in 10.0 mi WSW 10.4 mph - N/A   Mostly Cloudy
8:16 PM 51.8 °F - 35.6 °F 54% 29.76 in 10.0 mi SW 8.1 mph - N/A   Overcast
8:36 PM 51.8 °F - 35.6 °F 54% 29.76 in 10.0 mi SW 6.9 mph - N/A   Overcast
8:56 PM 51.8 °F - 33.8 °F 50% 29.76 in 10.0 mi WSW 11.5 mph - N/A   Mostly Cloudy
9:16 PM 50.0 °F - 33.8 °F 54% 29.77 in 10.0 mi WSW 10.4 mph 19.6 mph N/A   Overcast
9:36 PM 48.2 °F - 33.8 °F 58% 29.78 in 10.0 mi WSW 11.5 mph 16.1 mph N/A   Overcast
9:56 PM 48.2 °F - 35.6 °F 62% 29.80 in 10.0 mi West 5.8 mph - N/A   Overcast
10:16 PM 48.2 °F - 37.4 °F 66% 29.81 in 10.0 mi WSW 4.6 mph - N/A   Overcast
10:36 PM 46.4 °F 45.2 °F 37.4 °F 71% 29.81 in 10.0 mi SW 3.5 mph - N/A   Overcast
10:56 PM 46.4 °F - 39.2 °F 76% 29.82 in 10.0 mi Calm Calm - N/A   Overcast
11:16 PM 44.6 °F 42.2 °F 39.2 °F 81% 29.83 in 10.0 mi WSW 4.6 mph - N/A   Overcast
11:36 PM 44.6 °F 41.4 °F 37.4 °F 76% 29.84 in 10.0 mi WSW 5.8 mph - N/A   Overcast
11:56 PM 42.8 °F 39.3 °F 37.4 °F 81% 29.84 in 10.0 mi SW 5.8 mph - N/A   Overcast